Regional Weather Roundup
Issued by NWS

Home | Current Version | Previous Version | Text Only | Print | Product List | Glossary Off
Versions: 1 2 3 4 5 6 7 8 9 10 11 12 13 14 15 16 17 18 19 20 21 22 23 24 25 26 27 28 29 30 31 32 33 34 35 36 37 38 39 40 41 42 43 44 45 46 47 48 49 50

000
ASUS43 KLMK 281110
RWRKY
KENTUCKY REGIONAL WEATHER ROUNDUP
NATIONAL WEATHER SERVICE LOUISVILLE KY
700 AM EDT FRI APR 28 2017

NOTE "FAIR" INDICATES FEW OR NO CLOUDS BELOW 12,000 FEET
WITH NO SIGNIFICANT WEATHER AND/OR OBSTRUCTIONS TO VISIBILITY.

KYZ001>023-026-027-061>063-070>075-281200-
WESTERN AND SOUTH CENTRAL KENTUCKY

CITY           SKY/WX    TMP DP  RH WIND       PRES   REMARKS
PADUCAH        CLOUDY    55  51  86 E9        29.86F
HENDERSON      CLOUDY    52  49  89 E5        29.93S
OWENSBORO      CLOUDY    51  48  89 SE7       29.94F
HOPKINSVILLE   PTCLDY    54  51  92 E8        29.89F
BOWLING GREEN  CLOUDY    52  51  97 N3        29.96R
GLASGOW        CLOUDY    51  51 100 NE3       29.95R
$$

KYZ024-025-028>034-038-045-046-053-281200-
NORTH CENTRAL KENTUCKY

CITY           SKY/WX    TMP DP  RH WIND       PRES   REMARKS
LOUISVILLE/SDF CLOUDY    51  48  89 CALM      29.99R
LOUISVILLE/LOU CLOUDY    52  49  89 E3        29.99
FORT KNOX      CLOUDY    49  48  97 E6        29.96R
$$

KYZ035>037-039>044-047>052-055>060-089>105-281200-
NORTHEAST KENTUCKY

CITY           SKY/WX    TMP DP  RH WIND       PRES   REMARKS
LEXINGTON      PTCLDY    50  45  83 E6        29.98S
COVINGTON      MOCLDY    50  46  86 E8        29.99R
FRANKFORT      CLOUDY    48  44  86 CALM      29.99R
$$

KYZ054-064>069-076>088-106>120-281200-
SOUTHEAST KENTUCKY

CITY           SKY/WX    TMP DP  RH WIND       PRES   REMARKS
JACKSON        CLEAR     53  49  86 VRB3      30.01R
LONDON         CLEAR     50  47  89 CALM      29.99R
SOMERSET       PTCLDY    46  46 100 CALM      30.00R
MIDDLESBORO    FOG       50  50 100 CALM      30.02R VSB 1/2
MONTICELLO     SUNNY     46  46 100 NE8       29.99R FOG
$$





USA.gov is the U.S. government's official web portal to all federal, state and local government web resources and services.